Weather History for PAOH - September, 2013

Change the Weather History Date:

Thursday, September 26, 2013

  Actual Average Record
Temperature  
Mean Temperature 50 °F -  
Max Temperature 55 °F 50 °F 57 °F (1998)
Min Temperature 46 °F 41 °F 33 °F (2011)
Degree Days  
Heating Degree Days 14    
Moisture  
Dew Point 48 °F    
Average Humidity 92    
Maximum Humidity 100    
Minimum Humidity 64    
Precipitation  
Precipitation 0.04 in - - ()
Sea Level Pressure  
Sea Level Pressure 29.80 in    
Wind  
Wind Speed 5 mph (ENE)    
Max Wind Speed 9 mph    
Max Gust Speed -    
Visibility 8 miles    
Events Rain    
Averages and records for this station are not official NWS values.
T = Trace of Precipitation, MM = Missing Value Source: NWS Daily Summary

Daily Weather History Graph

Daily Weather History Graph

Search for Another Location

Airport or City:

Trip Planner

Search our weather history database for the weather conditions in past years. The results will help you decide how hot, cold, wet, or windy it might be!

Date:

Astronomy

Sep. 26, 2013 Rise Set
Actual Time 6:56 AM AKDT 6:48 PM AKDT
Civil Twilight 6:16 AM AKDT 7:27 PM AKDT
Nautical Twilight 5:30 AM AKDT 8:13 PM AKDT
Astronomical Twilight 4:40 AM AKDT 9:02 PM AKDT
Moon 10:48 PM AKDT (9/26) 3:01 PM AKDT (9/26)
Length of Visible Light 13h 10m
Length of Day
11h 52m
Waning Gibbous, 53% of the Moon is Illuminated
Sep 26
Waning Gibbous
Sep 26
Last Quarter
Oct 4
New
Oct 11
First Quarter
Oct 18
Full

Hourly Weather History & Observations

Time (AKDT) Temp. Dew Point Humidity Pressure Visibility Wind Dir Wind Speed Gust Speed Precip Events Conditions
12:56 AM 50.0 °F 48.2 °F 94% 29.93 in 7.0 mi East 9.2 mph - N/A Rain Light Rain
1:56 AM 50.9 °F 48.9 °F 93% 29.93 in 10.0 mi East 9.2 mph - 0.01 in   Overcast
2:39 AM 51.8 °F 48.2 °F 88% 29.91 in 7.0 mi ENE 9.2 mph - N/A   Overcast
2:56 AM 50.9 °F 48.9 °F 93% 29.91 in 10.0 mi East 8.1 mph - N/A   Overcast
3:56 AM 51.8 °F 48.2 °F 88% 29.88 in 10.0 mi East 4.6 mph - N/A   Overcast
4:56 AM 50.0 °F 48.9 °F 96% 29.87 in 10.0 mi ENE 4.6 mph - 0.00 in Rain Light Rain
5:56 AM 50.9 °F 47.8 °F 89% 29.85 in 10.0 mi ENE 6.9 mph - 0.00 in   Mostly Cloudy
6:56 AM 50.0 °F 48.2 °F 94% 29.83 in 10.0 mi East 6.9 mph - N/A   Mostly Cloudy
7:42 AM 48.2 °F 48.2 °F 100% 29.83 in 2.5 mi Calm Calm - 0.01 in Rain Light Rain
7:56 AM 48.9 °F 48.9 °F 100% 29.83 in 5.0 mi Calm Calm - 0.02 in Rain Light Rain
8:12 AM 48.2 °F 48.2 °F 100% 29.82 in 10.0 mi ESE 3.5 mph - 0.00 in Rain Light Rain
8:56 AM 50.0 °F 50.0 °F 100% 29.82 in 10.0 mi Calm Calm - 0.00 in   Overcast
9:07 AM 50.0 °F 50.0 °F 100% 29.81 in 2.5 mi NNW 3.5 mph - 0.01 in Rain Light Rain
9:11 AM 50.0 °F 50.0 °F 100% 29.81 in 3.0 mi Calm Calm - 0.01 in Rain Light Rain
9:56 AM 51.8 °F 50.0 °F 94% 29.81 in 10.0 mi Variable 3.5 mph - N/A   Overcast
10:56 AM 52.0 °F 50.9 °F 96% 29.81 in 5.0 mi Calm Calm - 0.01 in   Overcast
11:56 AM 54.0 °F 50.0 °F 86% 29.80 in 10.0 mi Calm Calm - N/A   Scattered Clouds
12:21 PM 53.6 °F 51.8 °F 94% 29.79 in 4.0 mi West 6.9 mph - 0.01 in Rain Light Rain
12:56 PM 55.4 °F 51.8 °F 88% 29.78 in 10.0 mi Variable 4.6 mph - N/A   Scattered Clouds
1:56 PM 55.9 °F 45.0 °F 67% 29.76 in 10.0 mi Variable 5.8 mph - N/A   Clear
2:56 PM 55.9 °F 43.9 °F 64% 29.75 in 10.0 mi West 5.8 mph - N/A   Mostly Cloudy
3:56 PM 55.9 °F 43.9 °F 64% 29.74 in 10.0 mi WNW 3.5 mph - N/A   Scattered Clouds
4:56 PM 52.9 °F 46.9 °F 80% 29.72 in 10.0 mi Calm Calm - 0.00 in Rain Light Rain
5:56 PM 50.9 °F 45.9 °F 83% 29.72 in 9.0 mi West 4.6 mph - 0.00 in Rain Light Rain
6:56 PM 48.2 °F 48.2 °F 100% 29.71 in 10.0 mi Calm Calm - N/A   Overcast
7:56 PM 47.8 °F 47.8 °F 100% 29.71 in 10.0 mi Calm Calm - 0.00 in   Mostly Cloudy
8:56 PM 46.9 °F 46.9 °F 100% 29.70 in 10.0 mi Calm Calm - N/A   Overcast
9:56 PM 46.9 °F 46.9 °F 100% 29.69 in 10.0 mi Calm Calm - N/A   Overcast
10:56 PM 46.9 °F 46.9 °F 100% 29.69 in 10.0 mi Calm Calm - N/A   Overcast
11:56 PM 46.9 °F 46.9 °F 100% 29.68 in 10.0 mi Calm Calm - N/A   Overcast